User: anonymous   Login
Location: Unspecified
(0.0000°N, 0.0000°E)
Time: 02:43:48
(UTC+00:00)
Language:

STARS-C - Orbit

View from above orbital plane
View from above orbital plane
View from above satellite
View from above satellite

Ground track
Ground track

The orbit data is extracted from the following two-line orbital elements,

1 41895U 98067KR  17146.89500974 +.00018842 +00000-0 +22952-3 0  9994
2 41895 051.6372 140.8996 0002775 245.0675 115.0030 15.60541460024660
Epoch (UTC): 26 May 2017 21:28:48
Eccentricity: 0.0002775
inclination: 51.6372°
perigee height: 384 km
apogee height: 388 km
right ascension of ascending node: 140.8996°
argument of perigee: 245.0675°
revolutions per day: 15.60541460
mean anomaly at epoch: 115.0030°
orbit number at epoch: 2466

The dashed part of the orbit path shows where the satellite is in the earth's shadow,  

DLR